INTELSAT 21 (IS-21)

Last updated on Wed Sep 17 2025 00:02:48 GMT+0000 (Coordinated Universal Time)

1 38749U 12045A 25259.50087832 -.00000304 00000+0 00000+0 0 9995 2 38749 0.0252 254.2819 0001971 295.6559 288.0737 1.00271271 47784
UTC large
Height (km)
Speed (km/s)
/
Latitude / Longitude
Inclination (degrees)
Orbital Period (minutes)
Azimuth
Elevation
Range (km)
Doppler Factor

Next 0 passes for location: London (51.5072 / 0.1276)

Sorry there are no passes over London.